User: anonymous   Login
Location: Sungai Igah
(2.7333°N, 114.2500°E)
Time: 20:27:48
(UTC+00:00)
Language:

Cosmos 2285 Rocket - Orbit

View from above orbital plane
View from above orbital plane
View from above satellite
View from above satellite

Ground track
Ground track

The orbit data is extracted from the following two-line orbital elements,

1 23190U 94045B   21266.35570448  .00000044  00000-0  70050-4 0  9994
2 23190  74.0306  38.7708 0019023  21.7405 338.4517 13.74107791361386
Epoch (UTC): 23 September 2021 08:32:12
Eccentricity: 0.0019023
inclination: 74.0306°
perigee height: 971 km
apogee height: 999 km
right ascension of ascending node: 38.7708°
argument of perigee: 21.7405°
revolutions per day: 13.74107791
mean anomaly at epoch: 338.4517°
orbit number at epoch: 36138

The dashed part of the orbit path shows where the satellite is in the earth's shadow,  

DLR